Overview Statistics Trail Chart Weather Telemetry Raw packets
 

This is the latest recevied weather packets stored in our database for station/object W8LMG. If no packets are shown the sender has not sent any weather packets the latest 10 day(s).

<< 12 13 14 15 16 17 18 >>
Time Temp. Humidity Pressure Rain* Wind** Luminosity Snow
1788527241 20.56° C 99% 1020.1 hPa 0 mm - 60 W/m² -
1788526940 20.56° C 99% 1020.1 hPa 0 mm - 59 W/m² -
1788526636 20° C 99% 1020.2 hPa 0 mm - 62 W/m² -
1788526362 20° C 99% 1020.2 hPa 0 mm - 47 W/m² -
1788526032 20° C 99% 1020.2 hPa 0 mm - 48 W/m² -
1788525728 20° C 99% 1020.3 hPa 0 mm - 40 W/m² -
1788525422 20° C 99% 1020.4 hPa 0 mm - 33 W/m² -
1788525119 20° C 99% 1020.3 hPa 0 mm - 35 W/m² -
1788524818 20° C 99% 1020.2 hPa 0 mm - 27 W/m² -
1788524513 20° C 99% 1020.3 hPa 0 mm - 22 W/m² -
1788524208 20° C 99% 1020.1 hPa 0 mm - 20 W/m² -
1788523904 20° C 99% 1020.1 hPa 0 mm - 19 W/m² -
1788523607 19.44° C 99% 1020.2 hPa 0 mm - 19 W/m² -
1788523296 19.44° C 99% 1020.1 hPa 0 mm - 17 W/m² -
1788522997 19.44° C 99% 1020.1 hPa 0 mm - 15 W/m² -
1788522692 19.44° C 99% 1020.1 hPa 0 mm - 14 W/m² -
1788522391 19.44° C 99% 1020.1 hPa 0 mm - 11 W/m² -
1788522086 19.44° C 99% 1020 hPa 0 mm - 11 W/m² -
1788521786 19.44° C 99% 1020.2 hPa 0 mm - 8 W/m² -
1788521485 19.44° C 99% 1019.9 hPa 0 mm - 7 W/m² -
1788521181 19.44° C 99% 1020 hPa 0 mm - 6 W/m² -
1788520877 19.44° C 99% 1019.8 hPa 0 mm - 5 W/m² -
1788520572 19.44° C 99% 1019.9 hPa 0 mm - 4 W/m² -
1788520268 19.44° C 99% 1019.9 hPa 0 mm - 3 W/m² -
1788519962 19.44° C 99% 1019.8 hPa 0 mm - 2 W/m² -

* Rain latest hour (hover to see other rain measurements)
** Current wind speed in m/s (hover to see current wind gust speed)